{"data":{"norad_id":42961,"intl_designator":"2017-061G","name":"IRIDIUM 132","alt_names":[],"object_type":"PAYLOAD","status":"ACTIVE","operator":null,"country":"US","launch_date":"2017-10-09","launch_site_code":"AFWTR","launch_vehicle":null,"mission":null,"orbit_class":"UNKNOWN","rcs_meters":null,"size_class":null,"mass_kg":null,"dimensions":null,"purposes":["comms"],"wikipedia_slug":null,"has_3d_model":false,"image_url":null,"decayed_at":null,"tle_current":{"epoch":"2026-09-20T04:14:34.725120Z","epoch_age_seconds":43480,"freshness":"FRESH","line1":"1 42961U 17061G   26263.17679080  .00000014  00000+0 -20316-5 0  9996","line2":"2 42961  86.4023 345.5605 0002215  95.4165 264.7284 14.34217706468438","mean_motion":14.34217706,"eccentricity":0.0002215,"inclination_deg":86.4023,"raan_deg":345.5605,"arg_perigee_deg":95.4165,"mean_anomaly_deg":264.7284,"bstar":-2.0316e-6,"rev_number":46843,"period_min":100.40316710467,"perigee_km":776.08229005494,"apogee_km":779.25231136016,"semimajor_km":7155.8043007075,"source":"CELESTRAK","updated_at":"2026-09-20T09:00:36.325344Z"}}}